User: anonymous
Location: Seminole
(32.7190°N, 102.6440°W)
Time: 23:00:38
(UTC-05:00)
Language:

Meteor 2-10 - Orbit

View from above orbital plane
View from above orbital plane
View from above satellite
View from above satellite

Ground track
Ground track

The orbit data is extracted from the following two-line orbital elements,

1 14452U 83109A   14273.36195194  .00000131  00000-0  47204-4 0  6153
2 14452 081.1654 356.3114 0090692 015.6079 344.7863 14.26257869607772
Epoch (UTC): 30 September 2014 08:41:12
Eccentricity: 0.0090692
inclination: 81.1654°
perigee height: 739 km
apogee height: 869 km
right ascension of ascending node: 356.3114°
argument of perigee: 15.6079°
revolutions per day: 14.26257869
mean anomaly at epoch: 344.7863°
orbit number at epoch: 60777

The dashed part of the orbit path shows where the satellite is in the earth's shadow,  

DLR